Cumshewa Island, British Columbia

3:56 AM PST on February 25, 2017 (GMT -0800)
Cumshewa Island

Weather History for CWZL - January, 2013

Change the Weather History Date:

Sunday, January 13, 2013

  Actual Average (CYZP) Record (CYZP)
Temperature  
Mean Temperature 41 °F -  
Max Temperature 43 °F 40 °F 50 °F (2009)
Min Temperature 39 °F 33 °F 21 °F (2005)
Degree Days  
Heating Degree Days 24    
Moisture  
Dew Point 41 °F    
Average Humidity 95    
Maximum Humidity 97    
Minimum Humidity 92    
Precipitation  
Precipitation 0.00 in - - ()
Sea Level Pressure  
Sea Level Pressure 30.42 in    
Wind  
Wind Speed 3 mph ()    
Max Wind Speed 7 mph    
Max Gust Speed -    
Averages and records for this station are not official NWS values.
T = Trace of Precipitation, MM = Missing Value Source: Averaged Metar Reports

Daily Weather History Graph

Daily Weather History Graph

Search for Another Location

Airport or City:

Trip Planner

Search our weather history database for the weather conditions in past years. The results will help you decide how hot, cold, wet, or windy it might be!

Date:

Astronomy

Jan. 13, 2013 Rise Set
Actual Time 8:53 AM PST 4:57 PM PST
Civil Twilight 8:13 AM PST 5:37 PM PST
Nautical Twilight 7:29 AM PST 6:21 PM PST
Astronomical Twilight 6:47 AM PST 7:03 PM PST
Moon 9:31 AM PST (1/13) 8:13 PM PST (1/13)
Length of Visible Light 9h 24m
Length of Day
8h 03m
Waxing Crescent, 6% of the Moon is Illuminated
Jan 13
Waxing Crescent
Jan 18
First Quarter
Jan 26
Full
Feb 3
Last Quarter
Feb 9
New

Hourly Weather History & Observations

Time (PST) Temp. Windchill Dew Point Humidity Pressure Visibility Wind Dir Wind Speed Gust Speed Precip Events Conditions
12:00 AM 40.5 °F 38.4 °F 39.2 °F 95% 30.41 in - West 3.5 mph - N/A   Unknown
1:00 AM 40.5 °F 38.4 °F 39.6 °F 97% 30.41 in - West 3.5 mph - N/A   Unknown
2:00 AM 39.9 °F 37.8 °F 39.0 °F 97% 30.41 in - West 3.5 mph - N/A   Unknown
3:00 AM 39.6 °F 34.7 °F 38.8 °F 97% 30.41 in - West 6.9 mph - N/A   Unknown
4:00 AM 40 °F - 39 °F 95% 30.42 in - West 3.5 mph - -  
4:00 AM 39.7 °F 37.6 °F 39.0 °F 97% 30.42 in - West 3.5 mph - N/A   Unknown
5:00 AM 40.1 °F 36.1 °F 39.2 °F 97% 30.42 in - West 5.8 mph - N/A   Unknown
6:00 AM 40.6 °F 36.7 °F 38.8 °F 93% 30.40 in - WSW 5.8 mph - N/A   Unknown
7:00 AM 41.4 °F 37.6 °F 39.2 °F 92% 30.41 in - West 5.8 mph - N/A   Unknown
8:00 AM 40.8 °F 37.8 °F 39.2 °F 94% 30.41 in - NNW 4.6 mph - N/A   Unknown
9:00 AM 41.2 °F - 39.7 °F 95% 30.43 in - West 1.2 mph - N/A   Unknown
10:00 AM 41 °F - 40 °F 95% 30.42 in - WSW 1.2 mph - -  
11:00 AM 42.1 °F 40.2 °F 40.8 °F 95% 30.43 in - WSW 3.5 mph - N/A   Unknown
12:00 PM 42.4 °F 40.7 °F 40.8 °F 94% 30.44 in - West 3.5 mph - N/A   Unknown
1:00 PM 43.0 °F 41.3 °F 41.2 °F 93% 30.43 in - WSW 3.5 mph - N/A   Unknown
2:00 PM 43.5 °F - 41.7 °F 93% 30.42 in - SW 2.3 mph - N/A   Unknown
3:00 PM 42.8 °F - 41.2 °F 94% 30.43 in - Calm Calm - N/A   Unknown
4:00 PM 43 °F - 42 °F 93% 30.43 in - Calm Calm - -  
4:00 PM 43.0 °F - 41.7 °F 95% 30.43 in - Calm Calm - N/A   Unknown
5:00 PM 43.3 °F 40.7 °F 42.4 °F 97% 30.43 in - East 4.6 mph - N/A   Unknown
6:00 PM 43.3 °F - 42.6 °F 97% 30.43 in - South 2.3 mph - N/A   Unknown
7:00 PM 43.5 °F - 42.8 °F 97% 30.44 in - Calm Calm - N/A   Unknown
10:00 PM 43.2 °F - 42.4 °F 97% 30.44 in - WSW 2.3 mph - N/A   Unknown
11:00 PM 43.7 °F 40.3 °F 43.0 °F 97% 30.44 in - SW 5.8 mph - N/A   Unknown